Regional Weather Roundup
Issued by NWS Little Rock, AR

Current Version | Previous Version | Text Only | Print | Product List | Glossary On
Versions: 1 2 3 4 5 6 7 8 9 10 11 12 13 14 15 16 17 18 19 20 21 22 23 24 25 26 27 28 29 30 31
000
ASUS44 KLZK 272105
RWRLZK

WEATHER ROUNDUP FOR ARKANSAS
NATIONAL WEATHER SERVICE LITTLE ROCK AR
400 PM CDT SAT MAY 27 2017

NOTE: "FAIR" INDICATES FEW OR NO CLOUDS BELOW 12,000 FEET WITH NO
SIGNIFICANT WEATHER AND/OR OBSTRUCTIONS TO VISIBILITY.

ARZ001-003-010-029-272200-
NORTHWEST ARKANSAS

CITY           SKY/WX    TMP DP  RH WIND       PRES   REMARKS
FAYETTEVILLE   PTSUNNY   85  75  72 S16       29.79S HX  93
FORT SMITH     MOSUNNY   92  71  50 S10       29.75F HX  98
HARRISON       CLOUDY    85  71  63 S10G20    29.81R HX  90
BENTONVILLE    PTSUNNY   84  73  70 SW12G20   29.79F HX  91
ROGERS         CLOUDY    85  73  67 SW13      29.80S HX  91
SILOAM SPGS    MOSUNNY   84  72  65 S20       29.76F HX  89
HIGHFILL       PTSUNNY   86  74  67 S14G23    29.78F HX  94
SPRINGDALE     PTSUNNY   86  72  62 S15G24    29.81F HX  92
$$

ARZ004-005-016-272200-
NORTH CENTRAL ARKANSAS

CITY           SKY/WX    TMP DP  RH WIND       PRES   REMARKS
BATESVILLE     PTSUNNY   86  73  66 SW8       29.82F HX  93
FLIPPIN        CLOUDY    88  70  55 S10G16    29.77R HX  92
MTN HOME       CLOUDY    85  73  67 SW7       29.79R HX  91
$$

ARZ040-041-272200-
WEST CENTRAL ARKANSAS

CITY           SKY/WX    TMP DP  RH WIND       PRES   REMARKS
MENA           MOSUNNY   90  77  66 SW7       29.83F HX 102
MOUNT IDA      CLOUDY    86  72  62 VRB7      29.81F HX  92
$$

ARZ009-017-025-026-028-272200-
NORTHEAST ARKANSAS

CITY           SKY/WX    TMP DP  RH WIND       PRES   REMARKS
JONESBORO      SUNNY     87  73  62 SW16G26   29.80F HX  94
NEWPORT        PTSUNNY   87  75  67 S17G23    29.81F HX  96
WALNUT RIDGE   PTSUNNY   86  73  66 S16       29.80F HX  93
BLYTHEVILLE    MOSUNNY   89  73  59 SW16G25   29.82F HX  97
$$

ARZ022-023-033-042-044-272200-
CENTRAL ARKANSAS

CITY           SKY/WX    TMP DP  RH WIND       PRES   REMARKS
LITTLE ROCK    PTSUNNY   88  74  63 SW16G23   29.82F HX  96
N LITTLE ROCK    N/A     88  75  64 SW9G21    29.81F HX  97
JACKSONVILLE   MOSUNNY   89  75  63 S9        29.82S HX  98
CONWAY           N/A     90  73  58 SW14      29.80S HX  98
SEARCY         CLOUDY    88  76  67 S10       29.85S HX  99
HOT SPRINGS    PTSUNNY   87  75  67 S9        29.82F HX  96
RUSSELLVILLE   MOSUNNY   89  72  56 S9        29.79F HX  96
CLINTON        PTSUNNY   88  73  62 SW10G18   29.80F HX  96
$$

ARZ036-272200-
EAST ARKANSAS

CITY           SKY/WX    TMP DP  RH WIND       PRES   REMARKS
WEST MEMPHIS   MOSUNNY   88  74  63 SW10G23   29.85S HX  96
$$

ARZ050-053-066-070-073-272200-
SOUTHWEST ARKANSAS

CITY           SKY/WX    TMP DP  RH WIND       PRES   REMARKS
ARKADELPHIA    MOCLDY    88  76  67 SW18G25   29.82F HX  99
CAMDEN         MOSUNNY   88  73  62 S8        29.85F HX  96
TEXARKANA      MOSUNNY   87  76  69 S16       29.85F HX  97
EL DORADO      PTSUNNY   88  75  65 S12       29.88F HAZE    HX  97
DE QUEEN       MOSUNNY   87  77  72 SW13G18   29.80F HAZE    HX  99
$$

ARZ056-057-069-272200-
SOUTHEAST ARKANSAS

CITY           SKY/WX    TMP DP  RH WIND       PRES   REMARKS
PINE BLUFF     MOSUNNY   88  74  63 SW15      29.83F HX  96
STUTTGART      MOSUNNY   90  68  48 S16G24    29.84F HX  93
MONTICELLO     MOSUNNY   90  74  59 SW16      29.86F HX  99

$$






USA.gov is the U.S. government's official web portal to all federal, state and local government web resources and services.